, AK

(GMT )
Deadhorse

Weather History for PASC - March, 2014

Change the Weather History Date:

Saturday, March 15, 2014

  Actual Average Record
Temperature  
Mean Temperature -8 °F -  
Max Temperature 7 °F -3 °F 15 °F (1989)
Min Temperature -17 °F -16 °F -45 °F (2009)
Degree Days  
Heating Degree Days 74    
Moisture  
Dew Point -15 °F    
Average Humidity 78    
Maximum Humidity 82    
Minimum Humidity 74    
Precipitation  
Precipitation 0.00 in - - ()
Sea Level Pressure  
Sea Level Pressure 29.47 in    
Wind  
Wind Speed 8 mph (SW)    
Max Wind Speed 12 mph    
Max Gust Speed -    
Visibility 10 miles    
Events      
Averages and records for this station are not official NWS values.
T = Trace of Precipitation, MM = Missing Value Source: NWS Daily Summary

Daily Weather History Graph

Daily Weather History Graph

Search for Another Location

Airport or City:

Trip Planner

Search our weather history database for the weather conditions in past years. The results will help you decide how hot, cold, wet, or windy it might be!

Date:

Astronomy

Mar. 15, 2014 Rise Set
Actual Time 8:14 AM AKDT 7:52 PM AKDT
Civil Twilight 7:13 AM AKDT 8:53 PM AKDT
Nautical Twilight 5:58 AM AKDT 10:10 PM AKDT
Astronomical Twilight 4:25 AM AKDT 11:46 PM AKDT
Moon 7:20 PM AKDT (3/15) 7:46 AM AKDT (3/15)
Length of Visible Light 13h 40m
Length of Day
11h 37m
Waxing Gibbous, 99% of the Moon is Illuminated
Mar 15
Waxing Gibbous
Mar 16
Full
Mar 23
Last Quarter
Mar 30
New
Apr 7
First Quarter

Hourly Weather History & Observations

Time (AKDT) Temp. Windchill Dew Point Humidity Pressure Visibility Wind Dir Wind Speed Gust Speed Precip Events Conditions
12:53 AM -13.0 °F -27.0 °F -17.0 °F 82% 29.39 in 10.0 mi WSW 5.8 mph - N/A   Mostly Cloudy
1:53 AM -13.0 °F -31.3 °F -18.0 °F 78% 29.41 in 10.0 mi WSW 9.2 mph - N/A   Mostly Cloudy
2:53 AM -14.1 °F -32.6 °F -18.0 °F 82% 29.40 in 10.0 mi WSW 9.2 mph - N/A   Scattered Clouds
3:53 AM -14.1 °F -34.7 °F -18.9 °F 79% 29.40 in 10.0 mi WSW 11.5 mph - N/A   Scattered Clouds
4:53 AM -15.0 °F -32.4 °F -20.0 °F 78% 29.40 in 10.0 mi WSW 8.1 mph - N/A   Scattered Clouds
5:53 AM -16.1 °F -35.0 °F -20.9 °F 79% 29.41 in 10.0 mi WSW 9.2 mph - N/A   Clear
6:53 AM -17.0 °F -33.4 °F -22.0 °F 78% 29.42 in 10.0 mi WSW 6.9 mph - N/A   Clear
7:53 AM -17.0 °F -36.1 °F -22.0 °F 78% 29.41 in 10.0 mi SW 9.2 mph - N/A   Clear
8:53 AM -17.0 °F -34.8 °F -22.0 °F 78% 29.41 in 10.0 mi SW 8.1 mph - N/A   Clear
9:53 AM -16.1 °F -33.7 °F -22.0 °F 74% 29.42 in 10.0 mi SW 8.1 mph - N/A   Clear
10:53 AM -14.1 °F -31.3 °F -18.9 °F 79% 29.43 in 10.0 mi SW 8.1 mph - N/A   Clear
11:53 AM -11.9 °F -27.3 °F -17.0 °F 78% 29.44 in 10.0 mi SW 6.9 mph - N/A   Clear
12:53 PM -9.9 °F -28.6 °F -16.1 °F 74% 29.46 in 10.0 mi WSW 10.4 mph - N/A   Clear
1:53 PM -9.0 °F -25.2 °F -14.1 °F 79% 29.47 in 10.0 mi SW 8.1 mph - N/A   Clear
2:53 PM -8.0 °F -19.2 °F -13.0 °F 79% 29.47 in 10.0 mi SW 4.6 mph - N/A   Clear
3:53 PM -7.1 °F -21.4 °F -11.9 °F 79% 29.47 in 10.0 mi SW 6.9 mph - N/A   Clear
4:53 PM -6.0 °F -22.6 °F -11.9 °F 75% 29.49 in 10.0 mi SSW 9.2 mph - N/A   Clear
5:53 PM -7.1 °F -21.4 °F -11.9 °F 79% 29.50 in 10.0 mi SW 6.9 mph - N/A   Clear
6:53 PM -8.0 °F -19.2 °F -13.0 °F 79% 29.52 in 10.0 mi WSW 4.6 mph - N/A   Clear
7:53 PM -9.0 °F -22.3 °F -14.1 °F 79% 29.55 in 10.0 mi WSW 5.8 mph - N/A   Scattered Clouds
8:53 PM -7.1 °F -21.4 °F -13.0 °F 75% 29.57 in 10.0 mi SW 6.9 mph - N/A   Overcast
9:53 PM -2.0 °F -17.7 °F -8.0 °F 76% 29.59 in 10.0 mi SW 9.2 mph - N/A   Overcast
10:53 PM -0.0 °F -15.3 °F -6.0 °F 76% 29.60 in 10.0 mi SW 9.2 mph - N/A   Overcast
11:53 PM 3.9 °F -5.3 °F -0.9 °F 80% 29.62 in 10.0 mi SW 4.6 mph - N/A   Overcast